[[{"header":{"parameterUnit":"m.s-1","parameterCategory":1,"la1":30.2991,"la2":30.254,"lo1":-89.0895,"lo2":-89.0444,"dy":0.0017,"dx":0.0017,"nx":28,"ny":28,"refTime":"2024-03-15T09:00:00:Z","depth":0,"parameterNumber":2,"parameterNumberName":"U-component_of_WINDS"},"data":[0,0,0,0,0,0,0,0,0,0,0,0,0,0,0,0,0,0,0,0,0,0,0,0,0,0,0,0,0,0,0,0,0,0,0,0,0,0,0,0,0,0,0,0,0,0,0,0,0,0,0,0,0,0,0,0,0,0,0.8793,0.8794,0,0.885,0.885,0.8851,0.884,0.8839,0.8838,0.8837,0.8898,0.89,0.8903,0,0,0,0,0,0,0,0,0,0,0,0,0,0.8679,0.8681,0.8793,0.8794,0.8795,0.885,0.885,0.8851,0.8841,0.8839,0.8838,0.8837,0.8897,0.89,0.8903,0,0,0,0,0,0,0,0,0,0,0,0,0,0.8731,0.8682,0.8793,0.8796,0.8797,0.8849,0.885,0.8851,0.8841,0.8839,0.8838,0.8836,0.8896,0.89,0.8904,0.8958,0,0,0.8915,0.8917,0,0,0,0,0,0,0,0,0.8729,0.8736,0.8795,0.8796,0.8797,0.8836,0.8832,0.8887,0.8841,0.8824,0.8837,0.8836,0.8879,0.8884,0.8898,0.8961,0.8963,0.8916,0.8918,0.892,0.8921,0,0,0,0,0,0,0,0.8725,0.8733,0.8816,0.8796,0.8797,0.8795,0.8801,0.8843,0.886,0.8826,0.8825,0.8832,0.8879,0.8894,0.8899,0.8964,0.8916,0.8919,0.8921,0.8923,0.9076,0.9078,0,0,0,0,0,0,0.872,0.873,0.8814,0.8817,0.8758,0.8799,0.8805,0.8825,0.8859,0.8863,0.8833,0.8831,0.8889,0.8895,0.8902,0.8969,0.892,0.8923,0.8925,0.9074,0.9076,0.9078,0,0,0,0,0,0,0.8718,0.8727,0.8812,0.8774,0.8784,0.8802,0.8825,0.8827,0.8842,0.8864,0.8868,0.8845,0.8888,0.8896,0.8944,0.897,0.8925,0.8929,0.9072,0.9075,0.9077,0.9102,0,0,0,0,0,0,0.8714,0.8727,0.8747,0.8774,0.8786,0.8852,0.8827,0.8829,0.8849,0.8847,0.8877,0.888,0.8887,0.8939,0.8948,0.8975,0.8932,0.907,0.9073,0.9077,0.9099,0.9105,0.9111,0,0,0,0,0,0.871,0.8752,0.8748,0.8758,0.8812,0.8854,0.8861,0.8867,0.8851,0.8872,0.8886,0.888,0.8966,0.8944,0.8954,0.8983,0.9068,0.9072,0.9076,0.9097,0.9104,0.9111,0,0,0,0,0,0,0.8728,0.8755,0.8751,0.8803,0.8826,0.8852,0.8879,0.8875,0.8904,0.8901,0.8908,0.8915,0.8964,0.8978,0.8952,0.9038,0.9015,0.9021,0.9027,0.9034,0.904,0.9036,0.8935,0,0,0,0,0,0.8737,0.8769,0.8791,0.8835,0.8846,0.8861,0.8879,0.8882,0.8907,0.8917,0.8934,0.8959,0.8992,0.9014,0.9045,0.9101,0.9108,0.9126,0.9131,0.9136,0.9142,0.9174,0.9182,0.9091,0.9091,0.9091,0,0,0.8758,0.8777,0.8796,0.8839,0.8857,0.889,0.8869,0.8905,0.893,0.8922,0.8969,0.8983,0.9011,0.9064,0.9088,0.9077,0.9168,0.9141,0.9145,0.9148,0.9179,0.9187,0.9195,0.9094,0.9094,0.9093,0,0,0.8813,0.883,0.8868,0.8887,0.8915,0.8924,0.8933,0.896,0.8969,0.9016,0.9011,0.9041,0.9097,0.9118,0.9136,0.92,0.9195,0.921,0.924,0.9271,0.9278,0.9285,0.9309,0.9317,0.9215,0.9215,0.9215,0,0.8836,0.8884,0.8889,0.8925,0.8945,0.8938,0.8978,0.8997,0.9034,0.9048,0.9035,0.9106,0.9124,0.9182,0.9198,0.9212,0.9224,0.9207,0.9277,0.9283,0.9289,0.9312,0.9321,0.9217,0.9217,0.9216,0.9216,0,0.8911,0.8946,0.8973,0.9009,0.9031,0.9069,0.908,0.9103,0.9103,0.9114,0.9163,0.9185,0.9221,0.9235,0.9236,0.9293,0.9286,0.9275,0.9253,0.93,0.9322,0.933,0.9219,0.9219,0.9218,0.9218,0,0,0.8979,0.9017,0.9027,0.9043,0.9074,0.9101,0.9139,0.9174,0.9193,0.9219,0.9252,0.93,0.929,0.9311,0.9314,0.9341,0.9392,0.9327,0.9328,0.934,0.9458,0.9467,0.9477,0.9389,0.939,0.9392,0.9456,0,0.9038,0.9105,0.911,0.917,0.9203,0.9198,0.9231,0.9254,0.9265,0.9295,0.9308,0.9342,0.9326,0.9339,0.9365,0.938,0.9416,0.9375,0.9421,0.9423,0.9415,0.9488,0.9498,0.9558,0.9465,0.9466,0.9467,0,0.9115,0.9143,0.9207,0.9233,0.9247,0.9277,0.931,0.9338,0.9365,0.9371,0.9394,0.9394,0.9435,0.941,0.9467,0.9439,0.9458,0.9469,0.9471,0.9477,0.9449,0.9497,0.9577,0.9586,0.948,0.9479,0.9478,0,0.916,0.9213,0.9259,0.9273,0.9305,0.9326,0.9341,0.9365,0.9386,0.9415,0.9429,0.9462,0.9481,0.9508,0.9517,0.9498,0.9575,0.955,0.9582,0.9582,0.9599,0.9598,0.9684,0.961,0.9609,0.9609,0.9609,0,0.9226,0.9265,0.9279,0.9307,0.9352,0.9358,0.9402,0.9415,0.9438,0.9469,0.9467,0.9496,0.9507,0.9538,0.9546,0.9593,0.9601,0.9609,0.9611,0.961,0.9609,0.9623,0.962,0.9612,0.9611,0.9611,0.961,0,0.9284,0.9295,0.9344,0.937,0.9377,0.9409,0.9432,0.946,0.947,0.951,0.952,0.9537,0.9575,0.9587,0.9632,0.9637,0.9692,0.969,0.9683,0.9684,0.9716,0.9713,0.9815,0.9829,0.9744,0.9745,0.9745,0,0.9326,0.9356,0.9385,0.9406,0.9421,0.9454,0.9475,0.9483,0.9505,0.9538,0.9562,0.9599,0.9629,0.9689,0.9706,0.9741,0.974,0.9774,0.9746,0.9744,0.9743,0.9741,0.9745,0.9779,0.978,0.9781,0.9781,0,0.9399,0.9403,0.9433,0.9466,0.9491,0.9517,0.9542,0.956,0.9571,0.9596,0.9634,0.9657,0.9704,0.9741,0.9776,0.9793,0.979,0.979,0.9799,0.9799,0.9795,0.9799,0.9699,0.9788,0.9787,0.9787,0.9786,0.9786,0.9451,0.9478,0.9503,0.9538,0.9557,0.9581,0.9608,0.9622,0.9654,0.9692,0.9694,0.9736,0.9762,0.981,0.9828,0.9861,0.9852,0.9865,0.9869,0.9872,0.9875,0.9789,0.9867,0.9867,0.9867,0.9867,0.9867,0,0.9526,0.9542,0.9573,0.9608,0.9635,0.9629,0.9657,0.968,0.9716,0.9741,0.977,0.9815,0.9851,0.9871,0.9907,0.993,0.993,0.994,0.9939,0.9943,0.9881,0.987,0.9939,0.9939,0.9939,0.9939,0.9939,0.9939,0.9568,0.9614,0.9621,0.9677,0.9692,0.9732,0.9749,0.9771,0.9791,0.984,0.987,0.9883,0.9906,0.9944,0.9978,0.9983,0.9997,1.0008,1.0012,0.9954,0.9947,0.994,0.9929,1.0011,1.0011,1.0072,1.0072,1.0073]},{"header":{"parameterUnit":"m.s-1","parameterCategory":1,"la1":30.2991,"la2":30.254,"lo1":-89.0895,"lo2":-89.0444,"dy":0.0017,"dx":0.0017,"nx":28,"ny":28,"refTime":"2024-03-15T09:00:00:Z","depth":0,"parameterNumber":3,"parameterNumberName":"V-component_of_WINDS"},"data":[0,0,0,0,0,0,0,0,0,0,0,0,0,0,0,0,0,0,0,0,0,0,0,0,0,0,0,0,0,0,0,0,0,0,0,0,0,0,0,0,0,0,0,0,0,0,0,0,0,0,0,0,0,0,0,0,0,0,0.0871,0.0872,0,0.0936,0.0936,0.0937,0.0905,0.0903,0.0901,0.09,0.0969,0.0972,0.0975,0,0,0,0,0,0,0,0,0,0,0,0,0,0.0722,0.0725,0.0871,0.0872,0.0873,0.0936,0.0936,0.0937,0.0905,0.0903,0.0901,0.0899,0.0968,0.0972,0.0976,0,0,0,0,0,0,0,0,0,0,0,0,0,0.0787,0.0726,0.0871,0.0864,0.0864,0.0935,0.0936,0.0938,0.0905,0.0903,0.09,0.0898,0.0966,0.0971,0.0976,0.1059,0,0,0.0992,0.0994,0,0,0,0,0,0,0,0,0.0783,0.0792,0.0864,0.0865,0.0865,0.0909,0.0909,0.0978,0.0906,0.089,0.09,0.0897,0.0951,0.0957,0.0975,0.1062,0.1065,0.0992,0.0996,0.0998,0.0999,0,0,0,0,0,0,0,0.0778,0.0789,0.0897,0.0865,0.0866,0.0858,0.0865,0.0922,0.0934,0.0891,0.0889,0.0897,0.0951,0.097,0.0977,0.1066,0.0992,0.0997,0.1,0.1002,0.1223,0.1226,0,0,0,0,0,0,0.0774,0.0786,0.0895,0.0899,0.0817,0.0863,0.087,0.0898,0.0933,0.0936,0.0899,0.0895,0.0963,0.0971,0.0979,0.1077,0.0998,0.1002,0.1005,0.122,0.1224,0.1227,0,0,0,0,0,0,0.0771,0.0784,0.0892,0.0842,0.0855,0.0868,0.09,0.09,0.092,0.0939,0.0941,0.0916,0.0961,0.0972,0.1039,0.1079,0.1005,0.1009,0.1217,0.1222,0.1225,0.1276,0,0,0,0,0,0,0.0767,0.0783,0.0814,0.0842,0.0858,0.0951,0.0902,0.0903,0.0928,0.0924,0.0956,0.0959,0.096,0.1031,0.1044,0.1085,0.1013,0.1214,0.1219,0.1224,0.127,0.1281,0.129,0,0,0,0,0,0.0762,0.0827,0.0816,0.0829,0.0897,0.0953,0.0962,0.096,0.0932,0.0963,0.0976,0.0958,0.1073,0.1039,0.1052,0.1096,0.1211,0.1218,0.1224,0.1266,0.1279,0.129,0,0,0,0,0,0,0.0804,0.083,0.0819,0.0895,0.0922,0.0947,0.0987,0.0974,0.1011,0.1005,0.1003,0.101,0.108,0.1094,0.1056,0.1177,0.1138,0.1147,0.1165,0.1177,0.1187,0.1182,0.1018,0,0,0,0,0,0.0822,0.0865,0.0886,0.0951,0.0965,0.0974,0.0998,0.0995,0.1023,0.1035,0.1052,0.1081,0.1123,0.1151,0.1191,0.1272,0.1279,0.1309,0.1319,0.1327,0.1335,0.1378,0.1392,0.1248,0.1248,0.1247,0,0,0.0861,0.088,0.0908,0.096,0.098,0.1025,0.0984,0.1033,0.1067,0.1042,0.1106,0.112,0.1152,0.1226,0.126,0.1241,0.1376,0.1335,0.1341,0.1345,0.1386,0.14,0.1412,0.1252,0.1251,0.125,0,0,0.0953,0.0972,0.1028,0.1049,0.108,0.1085,0.1099,0.1126,0.1134,0.1198,0.118,0.122,0.1293,0.1316,0.1338,0.1438,0.1423,0.1451,0.1502,0.1545,0.1556,0.1566,0.1601,0.1614,0.1459,0.1459,0.1459,0,0.0997,0.1063,0.1059,0.1109,0.1133,0.1111,0.1168,0.1189,0.1232,0.1249,0.1227,0.1317,0.1337,0.1416,0.144,0.1458,0.1474,0.1447,0.1554,0.1564,0.1574,0.1607,0.1621,0.1462,0.1462,0.1462,0.1461,0,0.1115,0.1161,0.1203,0.1243,0.1271,0.1325,0.1329,0.1358,0.1352,0.136,0.1425,0.1448,0.1492,0.1511,0.1506,0.1589,0.1576,0.1554,0.1514,0.1591,0.1622,0.1635,0.1467,0.1466,0.1465,0.1464,0,0,0.1237,0.1273,0.1289,0.1307,0.1339,0.1375,0.1427,0.1469,0.1494,0.1524,0.1568,0.1629,0.1609,0.1633,0.1631,0.1668,0.1745,0.1641,0.1642,0.1659,0.1837,0.1853,0.1868,0.1735,0.1737,0.1739,0.1834,0,0.1331,0.1422,0.1419,0.1504,0.1546,0.1526,0.1571,0.1596,0.1605,0.1642,0.1652,0.1696,0.1666,0.168,0.1716,0.1728,0.178,0.1721,0.1776,0.1778,0.1768,0.1885,0.1902,0.1991,0.1847,0.1849,0.185,0,0.1454,0.1486,0.1575,0.16,0.1617,0.1658,0.1696,0.1732,0.176,0.1763,0.1789,0.1781,0.1834,0.1792,0.1866,0.1825,0.1848,0.1857,0.186,0.1866,0.1819,0.1893,0.202,0.2033,0.187,0.1868,0.1867,0,0.1533,0.16,0.1661,0.1677,0.1707,0.1736,0.1751,0.1776,0.1801,0.1834,0.185,0.1889,0.1911,0.1942,0.1944,0.1913,0.2018,0.1977,0.2023,0.2023,0.2046,0.2044,0.2178,0.206,0.206,0.206,0.206,0,0.1639,0.1694,0.1697,0.1735,0.1795,0.1792,0.1852,0.1864,0.1886,0.1926,0.1911,0.1949,0.1949,0.1988,0.199,0.205,0.206,0.2065,0.2065,0.2066,0.2066,0.2081,0.2075,0.2063,0.2063,0.2062,0.2061,0,0.1738,0.1742,0.1808,0.1831,0.1838,0.1882,0.1902,0.1938,0.1944,0.1995,0.2007,0.2017,0.2062,0.2067,0.2119,0.212,0.2193,0.2187,0.2184,0.2183,0.2228,0.2224,0.2376,0.2396,0.2266,0.2267,0.2268,0,0.1805,0.1847,0.1874,0.1899,0.1914,0.1955,0.198,0.1978,0.2005,0.2039,0.2071,0.2114,0.2148,0.2221,0.2234,0.2273,0.2268,0.2318,0.2274,0.2273,0.2268,0.2266,0.227,0.2327,0.2328,0.2329,0.233,0,0.1924,0.1923,0.196,0.1997,0.2026,0.2056,0.2083,0.2105,0.2106,0.2137,0.2182,0.2208,0.2261,0.2304,0.2343,0.2358,0.2345,0.2344,0.2357,0.2359,0.2355,0.2358,0.2207,0.2341,0.234,0.2339,0.2338,0.2338,0.2009,0.2045,0.2069,0.2109,0.2129,0.2155,0.219,0.22,0.2237,0.2279,0.2276,0.2325,0.2351,0.2402,0.242,0.2459,0.2442,0.2461,0.2465,0.247,0.2475,0.2349,0.2466,0.2466,0.2466,0.2465,0.2465,0,0.2127,0.2141,0.2178,0.2216,0.2248,0.2231,0.226,0.2289,0.2332,0.2357,0.239,0.2442,0.2483,0.2498,0.2539,0.2567,0.2562,0.2578,0.2576,0.2579,0.2487,0.2472,0.2581,0.2581,0.2581,0.2581,0.2581,0.2581,0.2191,0.2251,0.2253,0.2322,0.2336,0.2384,0.2402,0.2425,0.2445,0.2502,0.2536,0.2545,0.2567,0.2608,0.2645,0.2649,0.2664,0.2683,0.2684,0.2598,0.2586,0.2575,0.256,0.2686,0.2686,0.2772,0.2773,0.2774]}]]